Location: Kikino
(54.4440°N, 112.0940°W)
Time: 22:47:04
(UTC+00:00)

Vanguard 3 - Pass Details

Date: 24 May 2024
Orbit: 509 x 3231 km, 33.3° (Epoch: 21 June)

Event Time Altitude Azimuth Distance (km) Brightness Sun altitude
Rises 04:27:25 0° 245° (WSW) 4,745 11.3 -5.6°
Reaches altitude 10° 04:30:42 10° 234° (SW) 4,125 10.8 -5.9°
Maximum altitude 04:40:10 29° 181° (S) 3,718 10.1 -6.8°
Drops below altitude 10° 04:53:32 10° 131° (SE) 5,895 10.9 -8.0°
Enters shadow 04:56:02 - 127° (SE) 6,406 11.1 -8.2°
